Location: Caltech
(34.1382°N, 118.1253°W)
Time: 15:26:56
(UTC-08:00)

Cosmos 1484 Rocket - Visible Passes

Search period start: 19 January 2017 00:00
Search period end: 29 January 2017 00:00
Orbit: 509 x 562 km, 97.3° (Epoch: 19 January)

Date Brightness Start Highest point End Pass type
(mag) Time Alt. Az. Time Alt. Az. Time Alt. Az.
19 Jan 4.9 06:04:52 10° NNE 06:08:30 33° E 06:12:04 10° SSE visible
19 Jan 4.0 18:17:53 10° S 18:21:37 46° W 18:25:27 10° NNW visible
20 Jan 5.4 05:56:21 10° NE 05:59:43 25° E 06:03:00 10° SSE visible
20 Jan 3.4 18:09:00 10° S 18:12:51 61° W 18:16:47 10° NNW visible
21 Jan 5.8 05:47:56 10° NE 05:50:54 20° E 05:53:50 10° SE visible
21 Jan 2.9 18:00:11 10° S 18:04:05 81° WSW 18:08:04 10° NNW visible
22 Jan 6.1 05:39:39 10° NE 05:42:05 16° E 05:44:28 10° SE visible
22 Jan 2.7 17:51:26 10° SSE 17:55:20 77° ENE 17:59:19 10° N visible
23 Jan 6.3 05:31:41 10° ENE 05:33:15 12° E 05:34:48 10° ESE visible
23 Jan 2.9 17:42:44 10° SSE 17:46:35 58° ENE 17:50:31 10° N visible
24 Jan 6.5 19:12:00 10° W 19:12:31 10° W 19:13:03 10° W visible
25 Jan 6.2 19:01:42 10° WSW 19:03:41 13° W 19:05:41 10° WNW visible
26 Jan 5.9 18:52:12 10° SW 18:54:52 17° W 18:57:32 10° NW visible
27 Jan 5.5 18:42:56 10° SSW 18:46:02 22° W 18:49:12 10° NW visible
28 Jan 3.7 06:20:13 10° NNE 06:24:06 54° E 06:27:53 10° S visible
28 Jan 5.1 18:33:48 10° SSW 18:37:14 28° W 18:40:44 10° NW visible
